Location: Ahstedt
(52.2048°N, 10.1060°E)
Time: 23:53:32
(UTC+00:00)

Cosmos 540 Rocket - Pass Details

Date: 13 April 2026
Orbit: 734 x 748 km, 74.1° (Epoch: 15 May)

Event Time Altitude Azimuth Distance (km) Brightness Sun altitude
Rises 02:39:32 0° 166° (SSE) 3,169 6.5 -15.5°
Reaches altitude 10° 02:42:13 10° 153° (SSE) 2,253 5.8 -15.1°
Maximum altitude 02:46:19 25° 99° (E) 1,477 5.5 -14.6°
Drops below altitude 10° 02:50:28 10° 46° (NE) 2,273 7.4 -14.1°
Sets 02:53:10 0° 33° (NNE) 3,203 8.1 -13.8°
